Weather reports worldwide

Advertisment
J6-A, Netherlands (6211): temperature & dewpoint: 10.12.2019 14:00:00 - 16.12.2019 14:00:00 (CET)J6-A, Netherlands (6211): wind speed & gusts: 10.12.2019 14:00:00 - 16.12.2019 14:00:00 (CET)J6-A, Netherlands (6211): wind direction: 10.12.2019 14:00:00 - 16.12.2019 14:00:00 (CET)J6-A, Netherlands (6211): reduced air pressure: 10.12.2019 14:00:00 - 16.12.2019 14:00:00 (CET)J6-A, Netherlands (6211): visibility: 10.12.2019 14:00:00 - 16.12.2019 14:00:00 (CET)
Date & Time tt [°C] td [°C] ff [km/h] ff [kn] fx [km/h] fx [kn] dd ppp [hPa] vv [km]
16.12.2019 14:00:00 8,0 5,1 41 22 47 25 SW 999,7 10
16.12.2019 13:00:00 8,0 5,0 41 22 47 25 SW 999,7 10
16.12.2019 12:00:00 8,1 4,9 48 26 50 27 SSW 999,8 10
16.12.2019 11:00:00 8,0 4,8 52 28 54 29 SSW 999,6 10
16.12.2019 10:00:00 8,1 5,4 50 27 50 27 SSW 999,3 10
16.12.2019 09:00:00 8,0 4,7 48 26 54 29 SSW 998,6 10
16.12.2019 08:00:00 8,0 4,8 50 27 54 29 SSW 997,8 10
16.12.2019 07:00:00 8,1 4,8 44 24 54 29 SSW 997,8 10
16.12.2019 06:00:00 8,1 4,7 50 27 58 31 SW 997,7 10
16.12.2019 05:00:00 8,5 5,2 50 27 58 31 SSW 997,8 10
16.12.2019 04:00:00 9,0 5,5 52 28 50 27 SSW 998,6 10
16.12.2019 03:00:00 8,9 5,6 50 27 54 29 SSW 998,6 10
16.12.2019 02:00:00 8,7 5,8 50 27 50 27 SSW 998,2 -
16.12.2019 01:00:00 8,8 5,6 46 25 47 25 SSW 998,9 14
16.12.2019 00:00:00 8,7 5,2 46 25 50 27 SSW 998,5 -
15.12.2019 23:00:00 8,6 4,8 44 24 47 25 SSW 999,0 -
15.12.2019 22:00:00 8,5 4,7 42 23 43 23 SSW 998,8 -
15.12.2019 21:00:00 8,4 4,5 48 26 54 29 SSW 998,2 -
15.12.2019 20:00:00 8,2 4,0 52 28 58 31 SW 997,7 -
15.12.2019 19:00:00 8,0 4,2 57 31 61 33 SW 997,0 -
15.12.2019 18:00:00 7,8 3,6 52 28 54 29 WSW 996,3 -
15.12.2019 17:00:00 7,3 2,9 50 27 65 35 WSW 995,6 -
15.12.2019 16:00:00 7,2 1,9 67 36 65 35 WSW 994,7 -
15.12.2019 15:00:00 7,0 1,6 65 35 72 39 WSW 993,4 -
15.12.2019 14:00:00 7,2 2,2 72 39 79 43 WSW 992,5 -
15.12.2019 13:00:00 7,1 2,0 78 42 79 43 WSW 992,3 -
15.12.2019 12:00:00 7,0 1,1 81 44 83 45 WSW 990,8 -
15.12.2019 11:00:00 6,9 1,3 89 48 94 51 WSW 989,0 -
15.12.2019 10:00:00 6,8 1,0 96 52 104 56 WSW 987,4 -
15.12.2019 09:00:00 6,9 1,5 102 55 104 56 WSW 985,6 10
15.12.2019 08:00:00 6,6 1,7 93 50 97 53 SW 984,0 10
15.12.2019 07:00:00 7,2 1,9 87 47 94 51 SW 982,8 10
15.12.2019 06:00:00 7,9 4,2 61 33 72 39 SW 982,2 10
15.12.2019 05:00:00 6,4 4,8 63 34 83 45 WSW 981,2 9
15.12.2019 04:00:00 8,2 5,4 55 30 65 35 SSW 982,2 10
15.12.2019 03:00:00 8,4 6,5 63 34 65 35 SSW 983,2 10
15.12.2019 02:00:00 7,7 6,4 50 27 54 29 S 985,9 -
15.12.2019 01:00:00 6,2 4,6 39 21 50 27 SSW 987,3 -
15.12.2019 00:00:00 7,5 2,6 39 21 58 31 SW 989,3 10
14.12.2019 23:00:00 7,4 2,9 61 33 65 35 SW 989,7 10
14.12.2019 22:00:00 7,3 2,0 63 34 65 35 SW 989,7 10
14.12.2019 21:00:00 7,2 0,9 67 36 68 37 WSW 989,8 10
14.12.2019 20:00:00 7,1 0,8 70 38 76 41 WSW 989,3 10
14.12.2019 19:00:00 7,0 0,7 78 42 79 43 WSW 988,1 10
14.12.2019 18:00:00 7,0 0,5 74 40 79 43 WSW 987,2 10
14.12.2019 17:00:00 7,0 1,9 80 43 76 41 WSW 986,1 10
14.12.2019 16:00:00 6,9 1,9 78 42 76 41 WSW 985,2 10
14.12.2019 15:00:00 7,3 2,2 68 37 79 43 WSW 984,4 10
14.12.2019 14:00:00 7,5 1,4 78 42 79 43 WSW 983,4 10
14.12.2019 13:00:00 7,0 1,1 76 41 83 45 WSW 982,7 10
14.12.2019 12:00:00 6,8 2,1 78 42 83 45 WSW 981,7 10
14.12.2019 11:00:00 6,9 2,1 87 47 83 45 WSW 981,2 10
14.12.2019 10:00:00 6,9 2,4 83 45 83 45 WSW 980,1 10
14.12.2019 09:00:00 6,8 2,1 78 42 79 43 WSW 979,0 10
14.12.2019 08:00:00 7,1 2,7 76 41 79 43 WSW 978,1 10
14.12.2019 07:00:00 6,9 2,8 74 40 76 41 WSW 977,5 10
14.12.2019 06:00:00 7,2 3,1 68 37 68 37 WSW 977,2 10
14.12.2019 05:00:00 7,4 2,7 63 34 65 35 WSW 977,1 10
14.12.2019 04:00:00 7,5 3,2 61 33 61 33 WSW 976,9 10
14.12.2019 03:00:00 7,1 3,3 59 32 58 31 WSW 976,6 10
14.12.2019 02:00:00 6,2 3,9 54 29 61 33 WSW 976,0 9
14.12.2019 01:00:00 7,5 4,0 57 31 54 29 WSW 976,7 10
14.12.2019 00:00:00 7,4 4,7 50 27 54 29 WSW 977,0 10
13.12.2019 23:00:00 7,2 5,0 61 33 61 33 WSW 976,9 10
13.12.2019 22:00:00 7,8 4,8 52 28 54 29 WSW 977,3 10
13.12.2019 21:00:00 7,6 5,1 54 29 58 31 WSW 977,3 10
13.12.2019 20:00:00 7,9 4,9 47 25 58 31 WSW 977,8 21
13.12.2019 19:00:00 7,9 5,5 44 24 54 29 WSW 977,9 8
13.12.2019 18:00:00 7,9 5,0 52 28 50 27 WSW 977,5 10
13.12.2019 17:00:00 7,9 4,9 44 24 47 25 WSW 977,5 10
13.12.2019 16:00:00 7,8 4,2 41 22 40 21 WSW 977,3 10
13.12.2019 15:00:00 7,7 4,4 31 17 32 18 WSW 976,5 10
13.12.2019 14:00:00 7,6 3,3 29 16 36 19 WSW 976,1 10
13.12.2019 13:00:00 7,8 3,6 34 18 36 19 WSW 975,4 10
13.12.2019 12:00:00 7,9 4,7 26 14 29 16 WSW 975,0 10
13.12.2019 11:00:00 8,1 4,8 24 13 25 14 SW 974,2 10
13.12.2019 10:00:00 8,0 5,9 21 11 22 12 SW 973,3 10
13.12.2019 09:00:00 8,1 6,0 21 11 22 12 SW 972,4 10
13.12.2019 08:00:00 8,0 6,2 21 11 25 14 SSW 971,6 10
13.12.2019 07:00:00 8,0 6,4 28 15 32 18 SSW 971,0 10
13.12.2019 06:00:00 8,0 6,6 31 17 32 18 SSW 970,4 10
13.12.2019 05:00:00 8,0 6,6 31 17 40 21 SW 970,0 10
13.12.2019 04:00:00 8,0 6,6 37 20 43 23 SW 969,6 10
13.12.2019 03:00:00 8,0 6,9 35 19 54 29 SSE 969,6 10
13.12.2019 02:00:00 7,1 5,7 50 27 65 35 SE 970,5 7
13.12.2019 01:00:00 6,7 4,5 67 36 68 37 SE 973,1 3,7
13.12.2019 00:00:00 6,9 4,9 63 34 65 35 SSE 975,4 4,1
12.12.2019 23:00:00 7,4 5,4 63 34 65 35 SSE 976,6 7
12.12.2019 22:00:00 7,3 5,8 57 31 61 33 SSE 978,6 8
12.12.2019 21:00:00 6,9 5,8 61 33 65 35 SSE 980,4 8
12.12.2019 20:00:00 7,0 5,5 65 35 65 35 SSE 982,8 10
12.12.2019 19:00:00 6,9 5,7 63 34 65 35 SSE 983,8 6
12.12.2019 18:00:00 7,0 5,2 59 32 61 33 SSE 985,2 3,9
12.12.2019 17:00:00 7,5 3,9 57 31 54 29 SSE 986,9 10
12.12.2019 16:00:00 7,8 3,9 52 28 50 27 SSE 988,7 10
12.12.2019 15:00:00 7,5 4,3 42 23 43 23 SSE 989,7 10
12.12.2019 14:00:00 7,6 2,1 39 21 40 21 S 991,3 10
12.12.2019 13:00:00 6,9 2,0 39 21 40 21 S 993,2 10
12.12.2019 12:00:00 6,4 0,9 37 20 43 23 S 994,5 10
12.12.2019 11:00:00 6,0 1,7 35 19 36 19 SSW 996,0 10
12.12.2019 10:00:00 6,1 0,6 34 18 36 19 SSW 996,1 10
12.12.2019 09:00:00 5,9 1,9 34 18 36 19 SSW 996,2 10
12.12.2019 08:00:00 6,2 2,7 28 15 36 19 SSW 996,6 10
12.12.2019 07:00:00 6,2 2,1 37 20 40 21 SW 997,0 10
12.12.2019 06:00:00 6,3 1,8 31 17 36 19 SW 997,3 10
12.12.2019 05:00:00 6,4 2,2 35 19 40 21 WSW 997,6 10
12.12.2019 04:00:00 6,6 2,1 35 19 40 21 WSW 997,8 10
12.12.2019 03:00:00 6,7 2,3 35 19 36 19 WSW 998,0 10
12.12.2019 02:00:00 6,8 1,8 34 18 36 19 W 998,0 10
12.12.2019 01:00:00 6,6 2,5 28 15 29 16 W 998,3 10
12.12.2019 00:00:00 6,2 3,2 31 17 32 18 W 998,4 10
11.12.2019 23:00:00 6,4 4,2 34 18 43 23 WSW 998,3 10
11.12.2019 22:00:00 7,9 4,3 35 19 36 19 SSW 998,9 10
11.12.2019 21:00:00 7,8 3,6 39 21 40 21 SSW 999,0 10
11.12.2019 20:00:00 7,8 4,1 44 24 43 23 SSW 999,3 10
11.12.2019 19:00:00 7,9 4,3 37 20 43 23 SSW 999,7 10
11.12.2019 18:00:00 7,8 4,2 34 18 36 19 SSW 1000,0 10
11.12.2019 17:00:00 7,7 4,2 29 16 32 18 SSW 1000,3 10
11.12.2019 16:00:00 7,7 4,3 31 17 32 18 SSW 1000,6 10
11.12.2019 15:00:00 7,5 4,1 35 19 40 21 SSW 1001,0 10
11.12.2019 14:00:00 7,4 4,0 34 18 40 21 SSW 1002,2 10
11.12.2019 13:00:00 7,2 4,0 34 18 40 21 SSW 1003,0 10
11.12.2019 12:00:00 6,9 3,9 34 18 40 21 SW 1004,4 10
11.12.2019 11:00:00 7,1 4,4 35 19 40 21 SSW 1004,3 10
11.12.2019 10:00:00 7,5 4,1 37 20 40 21 SW 1004,3 10
11.12.2019 09:00:00 7,8 3,6 35 19 40 21 SW 1004,0 10
11.12.2019 08:00:00 7,9 3,7 42 23 47 25 WSW 1003,8 10
11.12.2019 07:00:00 7,9 3,6 54 29 50 27 WSW 1003,8 10
11.12.2019 06:00:00 7,9 3,7 50 27 50 27 WSW 1003,9 10
11.12.2019 05:00:00 7,9 3,5 55 30 58 31 WSW 1003,9 10
11.12.2019 04:00:00 8,1 3,8 52 28 54 29 WSW 1003,9 10
11.12.2019 03:00:00 8,3 3,6 59 32 65 35 WSW 1003,2 10
11.12.2019 02:00:00 8,6 4,3 57 31 61 33 WSW 1002,3 10
11.12.2019 01:00:00 8,9 5,9 54 29 58 31 WSW 1001,8 10
11.12.2019 00:00:00 8,7 6,7 55 30 54 29 WSW 1000,9 10
10.12.2019 23:00:00 8,9 7,6 74 40 86 47 SSW 1000,0 4,7
10.12.2019 22:00:00 9,4 8,5 78 42 83 45 SSW 1000,0 5
10.12.2019 21:00:00 9,9 8,1 76 41 79 43 S 1001,2 7
10.12.2019 20:00:00 9,8 7,8 78 42 79 43 S 1002,7 8
10.12.2019 19:00:00 9,7 7,4 76 41 79 43 S 1003,9 -
10.12.2019 18:00:00 9,7 7,3 78 42 79 43 S 1005,2 -
10.12.2019 17:00:00 9,5 7,1 76 41 79 43 S 1005,9 7
10.12.2019 16:00:00 8,1 7,6 68 37 72 39 S 1008,5 5
10.12.2019 15:00:00 8,1 7,2 72 39 72 39 S 1009,9 5
10.12.2019 14:00:00 9,1 5,8 67 36 68 37 S 1011,7 -

tt = temperature
td = dewpoint
ff = wind speed
fx = gusts
dd = wind direction
ppp = reduced air pressure
vv = visibility

Next stations